{"data":{"norad_id":22787,"intl_designator":"1993-056A","name":"UFO 2 (USA 95)","alt_names":[],"object_type":"PAYLOAD","status":"ACTIVE","operator":null,"country":"US","launch_date":"1993-09-03","launch_site_code":"AFETR","launch_vehicle":null,"mission":null,"orbit_class":"UNKNOWN","rcs_meters":0.003,"size_class":null,"mass_kg":null,"dimensions":null,"purposes":["comms"],"wikipedia_slug":null,"has_3d_model":false,"image_url":null,"decayed_at":null,"tle_current":{"epoch":"2026-09-17T22:38:28.597920Z","epoch_age_seconds":232085,"freshness":"STALE","line1":"1 22787U 93056A   26260.94338655  .00000124  00000+0  00000+0 0  9993","line2":"2 22787  11.9282   3.0270 0001952 242.9212 119.1892  1.00272802119488","mean_motion":1.00272802,"eccentricity":0.0001952,"inclination_deg":11.9282,"raan_deg":3.027,"arg_perigee_deg":242.9212,"mean_anomaly_deg":119.1892,"bstar":0,"rev_number":11948,"period_min":1436.0823386585,"perigee_km":35778.079361555,"apogee_km":35794.54036161,"semimajor_km":42164.446861582,"source":"CELESTRAK","updated_at":"2026-09-20T09:00:35.115179Z"}}}